Location: *
(49.3500°N, 12.6000°E)
Time: 06:47:35
(UTC+00:00)

Cosmos 1726 Rocket - Pass Details

Date: 18 October 2019
Orbit: 602 x 631 km, 82.5° (Epoch: 11 November)

Event Time Altitude Azimuth Distance (km) Brightness Sun altitude
Rises 16:58:27 0° 182° (S) 2,887 7.1 -7.9°
Reaches altitude 10° 17:00:41 10° 181° (S) 1,981 6.2 -8.3°
Maximum altitude 17:05:03 72° 97° (E) 652 3.5 -9.0°
Drops below altitude 10° 17:09:25 10° 14° (NNE) 1,980 6.0 -9.7°
Sets 17:11:38 0° 12° (NNE) 2,885 6.8 -10.1°
